Location: Bakov nad Jizerou
(50.4784°N, 14.9394°E)
Time: 02:52:03
(UTC+00:00)

Cosmos 1727 Rocket - Pass Details

Date: 29 October 2021
Orbit: 960 x 997 km, 82.9° (Epoch: 07 December)

Event Time Altitude Azimuth Distance (km) Brightness Sun altitude
Rises 16:52:35 0° 342° (NNW) 3,669 7.2 -11.9°
Reaches altitude 10° 16:55:29 10° 330° (NNW) 2,713 6.6 -12.3°
Maximum altitude 17:00:25 26° 277° (W) 1,813 6.3 -13.1°
Drops below altitude 10° 17:05:19 10° 224° (SW) 2,692 7.1 -13.9°
Sets 17:08:12 0° 212° (SSW) 3,634 7.5 -14.4°
